Juan de Fuca Strait - west entrance: Past 24 Hour Conditions

 

Saturna Island

04:00 PM PDT 24 October 2014
This table is a summary of hourly weather conditions for the past 24 hours.
Date / Time
(PDT)
Wind(knots) Conditions Visibility(km) Pressure(kPa) Air tempC) Relative humidity(%) Dew pointC)
24 October 2014
16:00 N 6 N/A N/A 101.5 11 81 8
15:00 N 4 N/A N/A 101.5 12 81 9
14:00 NNW 6 N/A N/A 101.6 12 81 8
13:00 ENE 5 N/A N/A 101.7 12 77 8
12:00 ENE 7 N/A N/A 101.8 12 78 8
11:00 E 9 N/A N/A 101.8 10 83 8
10:00 E 10 N/A N/A 101.8 10 85 8
9:00 S 6 N/A N/A 101.8 11 80 7
8:00 SSW 1 N/A N/A 101.7 10 84 8
7:00 S 4 N/A N/A 101.7 10 86 8
6:00 ESE 6 N/A N/A 101.7 10 87 8
5:00 E 8 N/A N/A 101.6 10 86 8
4:00 SSE 5 N/A N/A 101.6 11 82 8
3:00 S 6 N/A N/A 101.6 10 85 8
2:00 SW 3 N/A N/A 101.6 10 86 7
1:00 S 12 N/A N/A 101.6 10 85 8
0:00 S 8 N/A N/A 101.5 10 84 8
23 October 2014
23:00 S 8 N/A N/A 101.5 10 83 7
22:00 SSW 8 N/A N/A 101.4 10 88 8
21:00 WSW 5 N/A N/A 101.3 10 87 8
20:00 WSW 7 N/A N/A 101.3 10 87 8
19:00 WSW 5 N/A N/A 101.2 10 82 7
18:00 WSW 5 N/A N/A 101.1 9 84 7
17:00 WSW 4 N/A N/A 101.0 10 83 7
16:00 W 5 gust 23 N/A N/A 101.0 11 77 8
 
Map of Pacific - Georgia Basin marine weather areas Tsawwassen Ferry Terminal Sentry Shoal - 46131 Halibut Bank - 46146 La Perouse Bank - 46206 Discovery Island Esquimalt Harbour Kelp Reefs Malahat Race Rocks Lightstation Saturna Island Sheringham Point University of Victoria Victoria Gonzales Victoria Int'l Airport Ballenas Islands Campbell River Airport Comox Airport Entrance Island Fanny Island Nanaimo Airport Sisters Islets Estevan Point Tofino Airport Grief Point Powell River Airport Sechelt Point Atkinson Sand Heads Lightstation Vancouver Harbour Vancouver Int'l Airport West Vancouver Port Alberni Howe Sound - Pam Rocks Squamish Airport